This is the latest recevied weather packets stored in our database for station/object VE3TEJ. If no packets are shown the sender has not sent any weather packets the latest 10 day(s).
| Time | Temp. | Humidity | Pressure | Rain* | Wind** | Luminosity | Snow |
|---|---|---|---|---|---|---|---|
| 1777956548 | 15° C | 76% | 999.7 hPa | 0 mm | - | - | - |
| 1777956248 | 15° C | 76% | 999.9 hPa | 0 mm | - | - | - |
| 1777955948 | 15° C | 77% | 999.9 hPa | 0 mm | - | - | - |
| 1777955647 | 15° C | 77% | 999.8 hPa | 0 mm | - | - | - |
| 1777955347 | 15° C | 77% | 999.7 hPa | 0 mm | - | - | - |
| 1777955048 | 15° C | 76% | 999.8 hPa | 0 mm | - | - | - |
| 1777954748 | 15.56° C | 76% | 1000 hPa | 0 mm | - | - | - |
| 1777954448 | 15.56° C | 74% | 999.8 hPa | 0 mm | - | - | - |
| 1777954147 | 15.56° C | 74% | 1000 hPa | 0 mm | - | - | - |
| 1777953849 | 15.56° C | 73% | 999.9 hPa | 0 mm | - | - | - |
| 1777953548 | 15.56° C | 73% | 1000 hPa | 0 mm | - | - | - |
| 1777953248 | 15.56° C | 73% | 999.9 hPa | 0 mm | - | - | - |
| 1777952947 | 15° C | 75% | 1000.1 hPa | 0 mm | - | - | - |
| 1777952648 | 15° C | 76% | 1000 hPa | 0 mm | - | - | - |
| 1777952347 | 15° C | 77% | 1000.1 hPa | 0 mm | - | - | - |
| 1777952047 | 15.56° C | 77% | 1000.3 hPa | 0 mm | - | - | - |
| 1777951749 | 15.56° C | 77% | 1000.2 hPa | 0 mm | - | - | - |
| 1777951448 | 15.56° C | 75% | 1000.2 hPa | 0 mm | - | - | - |
| 1777951148 | 16.11° C | 70% | 1000.5 hPa | 0 mm | - | - | - |
| 1777950847 | 16.11° C | 68% | 1000.8 hPa | 0 mm | - | - | - |
| 1777950547 | 16.11° C | 69% | 1000.7 hPa | 0 mm | - | - | - |
| 1777950249 | 16.67° C | 68% | 1000.7 hPa | 0 mm | - | - | - |
| 1777949948 | 16.67° C | 66% | 1001 hPa | 0 mm | - | - | - |
| 1777949648 | 16.67° C | 64% | 1000.9 hPa | 0 mm | - | - | - |
| 1777949347 | 16.67° C | 65% | 1000.7 hPa | 0 mm | - | - | - |
* Rain latest hour (hover to see other rain measurements)
** Current wind speed in m/s (hover to see current wind gust speed)